QPF
0.02 0.03 0.02 0.03 0.03 0.02 0.02 0.03 0.04 0.04 0.03 0.03 0.03 0.03 0.02 0.02 0.02 0.03 0.03 0.04 0.04 0.03 0.03 0.03 0.03 0.03 0.04 0.04 0.04 0.04 0.04 0.05 0.06 0.05 0.05 0.05 0.04 0.03 0.02 0.02 0.02 0.02 0.01
0.03 0.03 0.03 0.03 0.03 0.02 0.02 0.03 0.05 0.05 0.05 0.04 0.04 0.03 0.02 0.01 0.01 0.02 0.02 0.03 0.03 0.03 0.03 0.03 0.03 0.02 0.03 0.03 0.03 0.03 0.03 0.03 0.03 0.04 0.04 0.04 0.04 0.03 0.03 0.02 0.01 0.02 0.01
0.04 0.04 0.04 0.03 0.02 0.02 0.04 0.05 0.05 0.05 0.04 0.03 0.03 0.03 0.02 0.02 0.01 0.01 0.02 0.02 0.02 0.02 0.02 0.02 0.02 0.03 0.03 0.02 0.02 0.02 0.02 0.02 0.02 0.03 0.03 0.03 0.03 0.03 0.03 0.02 0.01 0.02 0.01
0.04 0.04 0.04 0.03 0.04 0.04 0.05 0.05 0.04 0.04 0.04 0.04 0.03 0.02 0.02 0.02 0.01 0.01 0.01 0.02 0.02 0.02 0.02 0.02 0.02 0.02 0.03 0.03 0.02 0.02 0.02 0.03 0.03 0.03 0.03 0.03 0.02 0.02 0.03 0.02 0.02 0.02 0.01
0.04 0.03 0.03 0.03 0.05 0.06 0.06 0.05 0.04 0.04 0.04 0.04 0.04 0.03 0.03 0.02 0.01 0.01 0.01 0.01 0.01 0.02 0.02 0.02 0.02 0.02 0.02 0.02 0.01 0.02 0.03 0.04 0.04 0.03 0.03 0.03 0.03 0.03 0.02 0.02 0.02 0.02 0.01
0.04 0.03 0.03 0.04 0.05 0.04 0.05 0.05 0.05 0.05 0.05 0.05 0.07 0.05 0.04 0.02 0.02 0.01 0.00 0.00 0.01 0.02 0.02 0.02 0.02 0.01 0.01 0.01 0.01 0.01 0.02 0.02 0.03 0.04 0.04 0.03 0.03 0.03 0.03 0.02 0.03 0.03 0.03
0.04 0.03 0.03 0.02 0.03 0.04 0.04 0.05 0.06 0.08 0.08 0.09 0.10 0.09 0.07 0.05 0.02 0.01 0.00 0.01 0.02 0.02 0.02 0.02 0.02 0.01 0.01 0.01 0.01 0.01 0.01 0.01 0.01 0.03 0.03 0.04 0.04 0.03 0.03 0.03 0.04 0.04 0.03
0.02 0.02 0.02 0.02 0.02 0.03 0.05 0.05 0.05 0.06 0.06 0.06 0.05 0.06 0.07 0.05 0.02 0.01 0.00 0.01 0.02 0.02 0.02 0.02 0.02 0.02 0.02 0.02 0.02 0.02 0.01 0.02 0.02 0.02 0.02 0.03 0.03 0.04 0.04 0.03 0.04 0.04 0.03
0.02 0.02 0.02 0.02 0.02 0.03 0.04 0.04 0.05 0.05 0.05 0.04 0.03 0.03 0.03 0.03 0.01 0.01 0.01 0.01 0.02 0.02 0.02 0.01 0.02 0.02 0.01 0.01 0.01 0.02 0.02 0.03 0.01 0.01 0.02 0.02 0.01 0.01 0.01 0.02 0.02 0.03 0.03
0.02 0.02 0.01 0.01 0.02 0.03 0.04 0.04 0.05 0.05 0.05 0.04 0.03 0.03 0.03 0.03 0.02 0.01 0.01 0.01 0.01 0.02 0.02 0.02 0.01 0.01 0.01 0.00 0.01 0.02 0.03 0.03 0.03 0.02 0.02 0.02 0.01 0.01 0.01 0.01 0.02 0.03 0.04
0.02 0.02 0.01 0.02 0.03 0.04 0.05 0.06 0.05 0.05 0.04 0.04 0.04 0.04 0.03 0.02 0.02 0.01 0.01 0.01 0.02 0.03 0.03 0.03 0.02 0.01 0.00 0.00 0.00 0.01 0.01 0.02 0.03 0.04 0.03 0.03 0.03 0.03 0.02 0.02 0.03 0.04 0.05
0.03 0.04 0.03 0.03 0.03 0.04 0.05 0.06 0.05 0.06 0.05 0.04 0.03 0.03 0.04 0.03 0.01 0.01 0.01 0.00 0.01 0.02 0.02 0.02 0.01 0.01 0.01 0.01 0.01 0.00 0.01 0.01 0.02 0.03 0.03 0.03 0.02 0.02 0.02 0.03 0.04 0.04 0.05
0.04 0.04 0.04 0.04 0.04 0.04 0.05 0.07 0.08 0.08 0.07 0.06 0.05 0.05 0.05 0.04 0.03 0.01 0.01 0.01 0.01 0.01 0.01 0.01 0.01 0.01 0.01 0.01 0.01 0.01 0.01 0.02 0.02 0.02 0.02 0.01 0.02 0.02 0.02 0.03 0.04 0.04 0.05
0.04 0.05 0.05 0.05 0.05 0.04 0.04 0.04 0.05 0.07 0.08 0.06 0.04 0.04 0.04 0.05 0.03 0.02 0.01 0.01 0.01 0.01 0.01 0.01 0.01 0.01 0.01 0.00 0.01 0.01 0.01 0.02 0.01 0.01 0.02 0.02 0.02 0.03 0.03 0.03 0.04 0.04 0.04
0.05 0.06 0.05 0.05 0.05 0.05 0.04 0.04 0.03 0.03 0.05 0.06 0.05 0.03 0.03 0.03 0.02 0.01 0.01 0.01 0.01 0.01 0.01 0.02 0.02 0.02 0.01 0.01 0.01 0.02 0.02 0.02 0.01 0.02 0.02 0.03 0.03 0.04 0.04 0.04 0.04 0.04 0.03
0.06 0.06 0.05 0.05 0.05 0.04 0.04 0.04 0.03 0.02 0.03 0.04 0.05 0.04 0.02 0.01 0.01 0.00 0.00 0.00 0.00 0.00 0.00 0.02 0.02 0.02 0.02 0.01 0.02 0.03 0.04 0.04 0.04 0.04 0.04 0.04 0.05 0.05 0.04 0.04 0.04 0.04 0.04
0.05 0.04 0.04 0.04 0.05 0.05 0.05 0.06 0.04 0.03 0.03 0.03 0.03 0.04 0.03 0.02 0.01 0.01 0.01 0.00 0.00 0.00 0.01 0.02 0.03 0.02 0.01 0.01 0.02 0.03 0.04 0.04 0.05 0.05 0.05 0.04 0.05 0.05 0.04 0.03 0.04 0.04 0.03
0.04 0.03 0.03 0.04 0.04 0.05 0.05 0.05 0.05 0.04 0.03 0.02 0.02 0.03 0.03 0.02 0.02 0.01 0.00 0.00 0.01 0.02 0.03 0.03 0.03 0.02 0.02 0.02 0.03 0.04 0.03 0.04 0.04 0.05 0.05 0.04 0.04 0.04 0.03 0.03 0.03 0.03 0.03
0.04 0.03 0.03 0.03 0.04 0.04 0.05 0.05 0.04 0.03 0.03 0.03 0.03 0.03 0.04 0.03 0.02 0.01 0.01 0.02 0.03 0.03 0.03 0.03 0.02 0.02 0.03 0.03 0.03 0.04 0.04 0.04 0.05 0.05 0.05 0.04 0.04 0.03 0.03 0.03 0.03 0.03 0.03
0.03 0.03 0.03 0.02 0.02 0.03 0.03 0.05 0.04 0.03 0.03 0.03 0.03 0.02 0.03 0.03 0.04 0.04 0.03 0.03 0.02 0.02 0.01 0.02 0.02 0.02 0.03 0.03 0.03 0.03 0.03 0.03 0.03 0.03 0.04 0.03 0.03 0.02 0.02 0.02 0.02 0.02 0.02
0.02 0.02 0.03 0.03 0.03 0.02 0.03 0.04 0.04 0.04 0.04 0.03 0.02 0.02 0.02 0.02 0.03 0.03 0.03 0.02 0.02 0.01 0.01 0.01 0.02 0.02 0.02 0.02 0.02 0.02 0.02 0.02 0.02 0.01 0.02 0.02 0.02 0.01 0.01 0.01 0.01 0.01 0.02
0.01 0.01 0.02 0.02 0.02 0.02 0.02 0.03 0.03 0.03 0.03 0.03 0.03 0.03 0.03 0.02 0.01 0.02 0.03 0.04 0.04 0.02 0.01 0.01 0.01 0.01 0.01 0.02 0.02 0.01 0.01 0.01 0.01 0.01 0.01 0.02 0.02 0.02 0.01 0.01 0.01 0.01 0.01
0.01 0.02 0.02 0.01 0.02 0.02 0.03 0.03 0.03 0.02 0.02 0.02 0.03 0.02 0.03 0.03 0.03 0.04 0.04 0.03 0.02 0.02 0.01 0.01 0.01 0.01 0.01 0.02 0.02 0.01 0.01 0.01 0.01 0.01 0.01 0.01 0.02 0.02 0.01 0.01 0.01 0.01 0.01
0.02 0.02 0.02 0.02 0.01 0.01 0.02 0.02 0.02 0.02 0.02 0.03 0.03 0.03 0.03 0.03 0.04 0.03 0.02 0.01 0.01 0.01 0.01 0.01 0.01 0.01 0.01 0.01 0.01 0.01 0.01 0.01 0.01 0.01 0.01 0.01 0.01 0.01 0.01 0.01 0.01 0.01 0.01
0.03 0.03 0.02 0.02 0.02 0.02 0.02 0.02 0.01 0.02 0.02 0.03 0.03 0.04 0.03 0.03 0.03 0.03 0.02 0.02 0.01 0.01 0.01 0.00 0.00 0.01 0.01 0.01 0.01 0.01 0.01 0.01 0.01 0.01 0.01 0.01 0.01 0.01 0.01 0.01 0.01 0.01 0.01
0.04 0.03 0.03 0.02 0.02 0.02 0.02 0.02 0.02 0.02 0.02 0.02 0.02 0.03 0.03 0.03 0.03 0.03 0.02 0.02 0.02 0.02 0.01 0.01 0.01 0.01 0.01 0.01 0.01 0.01 0.01 0.01 0.01 0.01 0.01 0.01 0.01 0.01 0.01 0.01 0.01 0.01 0.01
MSLP
1011.45 1011.50 1011.54 1011.50 1011.37 1011.14 1010.82 1010.45 1010.08 1009.75 1009.46 1009.22 1009.01 1008.78 1008.49 1008.11 1007.62 1007.04 1006.39 1005.72 1005.08 1004.52 1004.09 1003.82 1003.69 1003.71 1003.83 1004.04 1004.30 1004.58 1004.88 1005.17 1005.48 1005.78 1006.10 1006.43 1006.76 1007.09 1007.41 1007.73 1008.03 1008.34 1008.64
1011.37 1011.37 1011.37 1011.32 1011.20 1010.99 1010.71 1010.41 1010.10 1009.82 1009.60 1009.42 1009.27 1009.11 1008.90 1008.62 1008.25 1007.79 1007.26 1006.69 1006.14 1005.64 1005.23 1004.92 1004.74 1004.66 1004.67 1004.75 1004.89 1005.06 1005.27 1005.50 1005.75 1006.03 1006.33 1006.63 1006.94 1007.24 1007.53 1007.79 1008.04 1008.28 1008.52
1011.27 1011.24 1011.21 1011.14 1011.01 1010.81 1010.57 1010.30 1010.04 1009.82 1009.64 1009.51 1009.41 1009.32 1009.19 1009.00 1008.73 1008.39 1007.99 1007.55 1007.10 1006.68 1006.32 1006.03 1005.82 1005.69 1005.61 1005.60 1005.63 1005.70 1005.81 1005.95 1006.14 1006.35 1006.60 1006.85 1007.12 1007.37 1007.60 1007.81 1007.99 1008.16 1008.33
1011.20 1011.14 1011.08 1010.99 1010.85 1010.66 1010.43 1010.19 1009.96 1009.77 1009.62 1009.53 1009.46 1009.41 1009.33 1009.22 1009.04 1008.80 1008.51 1008.18 1007.85 1007.53 1007.24 1006.99 1006.79 1006.64 1006.52 1006.44 1006.39 1006.37 1006.38 1006.44 1006.54 1006.68 1006.85 1007.05 1007.26 1007.45 1007.63 1007.78 1007.91 1008.02 1008.12
1011.17 1011.09 1011.01 1010.91 1010.76 1010.57 1010.34 1010.12 1009.90 1009.73 1009.59 1009.51 1009.46 1009.42 1009.37 1009.29 1009.17 1009.00 1008.80 1008.56 1008.32 1008.09 1007.88 1007.69 1007.52 1007.38 1007.25 1007.13 1007.03 1006.95 1006.89 1006.87 1006.89 1006.95 1007.05 1007.18 1007.32 1007.47 1007.59 1007.70 1007.78 1007.84 1007.89
1011.20 1011.12 1011.02 1010.90 1010.73 1010.54 1010.32 1010.09 1009.89 1009.71 1009.59 1009.50 1009.44 1009.40 1009.35 1009.28 1009.18 1009.05 1008.89 1008.72 1008.54 1008.38 1008.23 1008.10 1007.98 1007.86 1007.74 1007.62 1007.49 1007.37 1007.26 1007.17 1007.13 1007.12 1007.15 1007.22 1007.31 1007.40 1007.49 1007.57 1007.62 1007.65 1007.66
1011.28 1011.19 1011.08 1010.94 1010.77 1010.56 1010.34 1010.11 1009.91 1009.74 1009.62 1009.52 1009.46 1009.40 1009.34 1009.26 1009.15 1009.02 1008.87 1008.73 1008.58 1008.46 1008.35 1008.26 1008.18 1008.09 1008.00 1007.88 1007.75 1007.61 1007.46 1007.34 1007.23 1007.17 1007.15 1007.16 1007.20 1007.26 1007.33 1007.38 1007.42 1007.43 1007.42
1011.38 1011.28 1011.16 1011.00 1010.81 1010.59 1010.37 1010.15 1009.96 1009.81 1009.69 1009.60 1009.53 1009.46 1009.38 1009.28 1009.16 1009.01 1008.85 1008.69 1008.55 1008.44 1008.34 1008.27 1008.21 1008.15 1008.07 1007.97 1007.85 1007.70 1007.54 1007.38 1007.24 1007.13 1007.06 1007.02 1007.03 1007.05 1007.09 1007.13 1007.16 1007.16 1007.14
1011.46 1011.35 1011.21 1011.03 1010.83 1010.60 1010.38 1010.17 1010.00 1009.87 1009.78 1009.71 1009.66 1009.60 1009.52 1009.41 1009.26 1009.09 1008.91 1008.72 1008.56 1008.42 1008.32 1008.24 1008.18 1008.13 1008.06 1007.97 1007.85 1007.70 1007.53 1007.36 1007.19 1007.04 1006.92 1006.85 1006.81 1006.80 1006.81 1006.83 1006.84 1006.84 1006.82
1011.51 1011.38 1011.22 1011.02 1010.80 1010.57 1010.35 1010.17 1010.03 1009.93 1009.88 1009.85 1009.84 1009.81 1009.74 1009.64 1009.49 1009.29 1009.08 1008.86 1008.66 1008.49 1008.35 1008.25 1008.17 1008.10 1008.04 1007.95 1007.83 1007.68 1007.51 1007.32 1007.13 1006.95 1006.79 1006.66 1006.58 1006.52 1006.49 1006.48 1006.47 1006.45 1006.42
1011.54 1011.39 1011.20 1010.98 1010.74 1010.51 1010.30 1010.13 1010.02 1009.97 1009.97 1010.01 1010.04 1010.06 1010.03 1009.94 1009.80 1009.60 1009.37 1009.12 1008.87 1008.65 1008.47 1008.33 1008.22 1008.13 1008.04 1007.95 1007.83 1007.69 1007.51 1007.31 1007.09 1006.88 1006.68 1006.50 1006.36 1006.24 1006.16 1006.10 1006.05 1006.00 1005.94
1011.56 1011.39 1011.18 1010.94 1010.68 1010.44 1010.24 1010.09 1010.02 1010.01 1010.07 1010.15 1010.25 1010.32 1010.33 1010.28 1010.15 1009.96 1009.71 1009.43 1009.15 1008.88 1008.65 1008.46 1008.31 1008.19 1008.09 1007.98 1007.86 1007.71 1007.53 1007.32 1007.09 1006.85 1006.60 1006.37 1006.16 1005.98 1005.82 1005.70 1005.59 1005.50 1005.41
1011.61 1011.43 1011.19 1010.93 1010.66 1010.41 1010.21 1010.08 1010.03 1010.07 1010.16 1010.30 1010.44 1010.55 1010.61 1010.59 1010.49 1010.30 1010.04 1009.74 1009.43 1009.12 1008.84 1008.61 1008.42 1008.27 1008.14 1008.03 1007.90 1007.75 1007.57 1007.36 1007.11 1006.84 1006.55 1006.27 1005.99 1005.73 1005.50 1005.30 1005.13 1004.98 1004.86
1011.71 1011.51 1011.26 1010.99 1010.71 1010.46 1010.26 1010.14 1010.10 1010.15 1010.27 1010.44 1010.61 1010.75 1010.84 1010.84 1010.75 1010.56 1010.30 1009.98 1009.64 1009.30 1008.98 1008.71 1008.49 1008.31 1008.17 1008.04 1007.92 1007.78 1007.60 1007.39 1007.13 1006.84 1006.52 1006.18 1005.85 1005.52 1005.21 1004.94 1004.70 1004.49 1004.32
1011.84 1011.64 1011.39 1011.12 1010.84 1010.59 1010.39 1010.27 1010.24 1010.29 1010.41 1010.58 1010.76 1010.90 1010.99 1011.00 1010.91 1010.72 1010.45 1010.12 1009.75 1009.39 1009.04 1008.74 1008.49 1008.30 1008.15 1008.02 1007.90 1007.77 1007.61 1007.40 1007.14 1006.84 1006.50 1006.12 1005.73 1005.34 1004.97 1004.63 1004.32 1004.06 1003.85
1011.98 1011.79 1011.55 1011.29 1011.02 1010.78 1010.59 1010.47 1010.43 1010.48 1010.59 1010.74 1010.90 1011.03 1011.10 1011.09 1010.98 1010.78 1010.49 1010.15 1009.77 1009.38 1009.02 1008.71 1008.44 1008.24 1008.08 1007.96 1007.85 1007.73 1007.59 1007.39 1007.14 1006.84 1006.48 1006.08 1005.65 1005.22 1004.79 1004.40 1004.04 1003.74 1003.50
1012.09 1011.91 1011.69 1011.45 1011.21 1010.99 1010.81 1010.70 1010.67 1010.70 1010.79 1010.92 1011.04 1011.14 1011.18 1011.14 1011.01 1010.78 1010.48 1010.12 1009.73 1009.34 1008.97 1008.65 1008.38 1008.18 1008.02 1007.91 1007.81 1007.71 1007.57 1007.39 1007.15 1006.85 1006.48 1006.07 1005.62 1005.15 1004.69 1004.26 1003.88 1003.55 1003.28
1012.11 1011.95 1011.77 1011.56 1011.35 1011.17 1011.03 1010.94 1010.91 1010.94 1011.02 1011.11 1011.21 1011.26 1011.27 1011.19 1011.03 1010.79 1010.47 1010.10 1009.70 1009.31 1008.94 1008.63 1008.36 1008.16 1008.02 1007.91 1007.82 1007.72 1007.60 1007.43 1007.19 1006.89 1006.52 1006.10 1005.64 1005.16 1004.68 1004.23 1003.83 1003.48 1003.21
1012.02 1011.90 1011.74 1011.58 1011.42 1011.29 1011.19 1011.14 1011.14 1011.18 1011.25 1011.33 1011.39 1011.42 1011.38 1011.28 1011.09 1010.83 1010.50 1010.13 1009.74 1009.36 1009.00 1008.69 1008.44 1008.25 1008.11 1008.00 1007.92 1007.82 1007.69 1007.52 1007.28 1006.98 1006.61 1006.18 1005.71 1005.23 1004.75 1004.29 1003.89 1003.54 1003.26
1011.85 1011.74 1011.63 1011.52 1011.42 1011.34 1011.30 1011.30 1011.33 1011.39 1011.47 1011.54 1011.59 1011.60 1011.54 1011.41 1011.21 1010.94 1010.61 1010.25 1009.87 1009.50 1009.16 1008.87 1008.63 1008.45 1008.31 1008.21 1008.11 1008.00 1007.87 1007.68 1007.43 1007.12 1006.74 1006.31 1005.84 1005.36 1004.88 1004.43 1004.03 1003.70 1003.43
1011.63 1011.54 1011.46 1011.40 1011.36 1011.34 1011.36 1011.41 1011.49 1011.58 1011.68 1011.76 1011.80 1011.79 1011.73 1011.59 1011.38 1011.11 1010.79 1010.45 1010.09 1009.74 1009.43 1009.16 1008.93 1008.76 1008.62 1008.50 1008.39 1008.26 1008.10 1007.89 1007.62 1007.29 1006.90 1006.46 1005.99 1005.51 1005.05 1004.61 1004.23 1003.91 1003.66
1011.42 1011.36 1011.31 1011.28 1011.29 1011.33 1011.41 1011.51 1011.62 1011.75 1011.86 1011.95 1012.00 1011.99 1011.92 1011.78 1011.57 1011.32 1011.02 1010.70 1010.37 1010.05 1009.77 1009.51 1009.30 1009.13 1008.99 1008.85 1008.72 1008.56 1008.37 1008.12 1007.82 1007.46 1007.06 1006.61 1006.14 1005.67 1005.22 1004.81 1004.45 1004.15 1003.93
1011.29 1011.24 1011.22 1011.23 1011.27 1011.35 1011.47 1011.60 1011.75 1011.90 1012.03 1012.12 1012.17 1012.16 1012.09 1011.95 1011.76 1011.52 1011.25 1010.96 1010.66 1010.38 1010.13 1009.90 1009.70 1009.53 1009.37 1009.22 1009.05 1008.85 1008.62 1008.33 1008.00 1007.61 1007.18 1006.72 1006.25 1005.79 1005.36 1004.98 1004.65 1004.39 1004.20
1011.25 1011.22 1011.22 1011.25 1011.32 1011.43 1011.57 1011.72 1011.88 1012.03 1012.17 1012.26 1012.30 1012.29 1012.23 1012.10 1011.93 1011.71 1011.47 1011.21 1010.96 1010.71 1010.48 1010.28 1010.09 1009.91 1009.74 1009.56 1009.35 1009.11 1008.83 1008.50 1008.12 1007.70 1007.25 1006.78 1006.31 1005.87 1005.46 1005.10 1004.82 1004.60 1004.45
1011.28 1011.27 1011.29 1011.34 1011.43 1011.55 1011.69 1011.85 1012.01 1012.16 1012.28 1012.37 1012.41 1012.40 1012.33 1012.22 1012.07 1011.88 1011.67 1011.46 1011.24 1011.03 1010.83 1010.64 1010.46 1010.27 1010.08 1009.86 1009.61 1009.32 1008.99 1008.61 1008.19 1007.74 1007.26 1006.79 1006.32 1005.89 1005.51 1005.19 1004.95 1004.78 1004.69
1011.30 1011.33 1011.37 1011.44 1011.54 1011.67 1011.81 1011.97 1012.12 1012.26 1012.37 1012.45 1012.49 1012.48 1012.43 1012.34 1012.21 1012.05 1011.89 1011.71 1011.53 1011.35 1011.18 1011.00 1010.82 1010.62 1010.40 1010.15 1009.85 1009.51 1009.13 1008.70 1008.23 1007.74 1007.25 1006.76 1006.30 1005.89 1005.53 1005.25 1005.05 1004.93 1004.90
Thickness
5716 5714 5712 5710 5707 5704 5701 5699 5696 5694 5692 5690 5687 5685 5683 5680 5678 5676 5673 5672 5669 5666 5664 5662 5660 5659 5658 5658 5657 5655 5653 5650 5645 5646 5649 5650 5649 5648 5647 5648 5648 5648 5647
5714 5712 5709 5707 5704 5701 5699 5696 5694 5691 5689 5687 5685 5682 5681 5679 5676 5674 5671 5669 5666 5663 5661 5658 5656 5656 5654 5653 5651 5650 5647 5645 5641 5638 5640 5641 5642 5642 5641 5641 5642 5643 5642
5712 5709 5705 5702 5700 5697 5696 5694 5691 5688 5686 5684 5682 5679 5677 5675 5673 5671 5669 5666 5664 5661 5659 5656 5654 5652 5649 5648 5646 5644 5642 5640 5637 5633 5633 5634 5635 5635 5634 5635 5636 5636 5637
5709 5706 5702 5699 5697 5694 5693 5691 5688 5685 5683 5681 5679 5677 5674 5672 5670 5668 5666 5664 5661 5659 5657 5654 5651 5648 5645 5643 5641 5639 5636 5633 5631 5629 5627 5627 5627 5629 5627 5625 5625 5628 5629
5705 5702 5699 5696 5694 5692 5689 5687 5686 5683 5681 5678 5676 5673 5671 5669 5666 5664 5662 5661 5658 5655 5653 5650 5648 5645 5642 5639 5637 5634 5631 5628 5625 5623 5622 5622 5621 5620 5619 5619 5618 5619 5621
5701 5698 5696 5694 5690 5688 5685 5684 5682 5679 5677 5674 5672 5669 5666 5664 5660 5658 5656 5656 5654 5651 5648 5646 5643 5641 5638 5635 5632 5630 5627 5624 5621 5619 5617 5615 5615 5616 5615 5614 5612 5611 5611
5697 5695 5693 5690 5687 5685 5683 5680 5677 5675 5673 5671 5668 5664 5660 5657 5655 5653 5652 5650 5649 5647 5645 5642 5639 5638 5634 5631 5629 5626 5624 5621 5618 5615 5613 5612 5611 5612 5610 5609 5608 5606 5607
5692 5690 5689 5687 5684 5682 5679 5676 5674 5671 5669 5667 5665 5662 5658 5654 5651 5649 5647 5645 5645 5643 5641 5639 5635 5632 5629 5626 5624 5622 5620 5619 5617 5613 5612 5610 5609 5608 5606 5605 5604 5604 5605
5687 5685 5684 5683 5680 5677 5674 5672 5670 5667 5665 5663 5661 5658 5655 5650 5647 5645 5642 5642 5640 5639 5638 5634 5631 5627 5623 5620 5618 5616 5615 5614 5614 5612 5609 5607 5606 5604 5602 5599 5598 5596 5597
5682 5682 5681 5679 5676 5673 5671 5669 5667 5664 5662 5660 5658 5656 5652 5649 5644 5641 5638 5638 5636 5635 5633 5630 5626 5623 5619 5616 5613 5611 5609 5609 5608 5608 5605 5604 5603 5602 5599 5596 5594 5592 5592
5680 5678 5676 5675 5673 5671 5669 5666 5663 5661 5659 5657 5655 5653 5651 5647 5642 5638 5635 5633 5631 5630 5628 5626 5623 5619 5615 5612 5609 5608 5606 5605 5604 5603 5603 5602 5601 5599 5597 5595 5593 5590 5588
5676 5674 5672 5671 5670 5669 5665 5662 5660 5657 5654 5652 5651 5649 5648 5645 5640 5635 5631 5628 5625 5623 5623 5622 5619 5614 5612 5608 5606 5605 5603 5601 5600 5600 5599 5599 5597 5596 5595 5594 5592 5590 5589
5671 5669 5667 5666 5665 5663 5661 5658 5655 5653 5650 5649 5647 5646 5645 5643 5638 5633 5628 5625 5621 5618 5618 5616 5613 5610 5607 5606 5604 5602 5599 5598 5597 5596 5596 5595 5595 5595 5593 5591 5589 5588 5587
5666 5663 5662 5661 5660 5659 5657 5655 5652 5650 5647 5646 5644 5643 5641 5638 5634 5629 5625 5621 5617 5614 5612 5611 5610 5608 5605 5603 5602 5601 5599 5597 5595 5594 5593 5593 5593 5591 5589 5587 5585 5583 5582
5660 5658 5657 5657 5656 5655 5653 5650 5649 5646 5643 5640 5638 5637 5634 5631 5627 5622 5619 5617 5614 5610 5607 5607 5606 5606 5604 5602 5602 5601 5599 5596 5593 5592 5590 5590 5589 5587 5586 5585 5582 5580 5577
5654 5652 5652 5651 5651 5650 5649 5646 5643 5640 5637 5635 5632 5630 5627 5624 5621 5618 5614 5611 5608 5604 5602 5603 5603 5603 5602 5601 5599 5597 5595 5593 5590 5589 5587 5586 5585 5583 5582 5581 5579 5576 5574
5649 5648 5648 5647 5646 5645 5645 5643 5638 5634 5631 5628 5626 5623 5621 5617 5615 5612 5609 5605 5603 5599 5599 5600 5600 5600 5599 5598 5596 5593 5591 5590 5587 5585 5583 5582 5580 5579 5578 5576 5575 5573 5571
5646 5644 5643 5643 5642 5642 5642 5640 5637 5633 5629 5626 5622 5618 5615 5613 5610 5607 5603 5600 5602 5600 5600 5600 5599 5598 5596 5594 5592 5590 5588 5586 5584 5581 5579 5577 5576 5574 5573 5571 5570 5568 5567
5641 5641 5639 5639 5639 5638 5638 5636 5634 5632 5629 5626 5623 5616 5611 5609 5605 5602 5598 5598 5600 5600 5600 5598 5597 5595 5593 5591 5588 5586 5583 5581 5579 5576 5574 5573 5571 5569 5567 5566 5565 5564 5562
5637 5635 5633 5634 5635 5634 5633 5631 5630 5628 5626 5623 5620 5617 5611 5607 5605 5602 5598 5598 5598 5597 5597 5595 5594 5592 5589 5587 5584 5582 5579 5577 5574 5572 5570 5568 5565 5563 5562 5561 5560 5559 5557
5634 5632 5629 5629 5630 5630 5629 5627 5625 5624 5622 5620 5618 5615 5610 5607 5605 5603 5600 5597 5595 5594 5593 5591 5589 5588 5585 5582 5580 5578 5575 5572 5569 5567 5564 5562 5560 5558 5557 5556 5555 5554 5553
5630 5630 5628 5627 5627 5625 5624 5623 5622 5620 5619 5617 5615 5612 5606 5605 5603 5601 5599 5596 5594 5592 5590 5588 5585 5583 5580 5578 5575 5572 5569 5566 5564 5561 5559 5556 5555 5553 5552 5551 5550 5548 5547
5626 5626 5625 5624 5622 5619 5619 5618 5617 5615 5614 5613 5611 5607 5603 5600 5598 5596 5594 5593 5590 5588 5585 5582 5579 5577 5574 5571 5568 5565 5561 5558 5556 5554 5553 5551 5549 5548 5546 5545 5544 5543 5541
5621 5621 5620 5620 5619 5617 5615 5614 5613 5611 5609 5607 5605 5602 5599 5595 5592 5590 5588 5587 5585 5582 5580 5577 5574 5571 5568 5564 5561 5558 5554 5551 5549 5547 5546 5544 5543 5542 5541 5539 5539 5538 5537
5617 5617 5616 5616 5614 5612 5610 5608 5607 5605 5603 5601 5598 5595 5593 5590 5588 5585 5582 5580 5578 5575 5573 5571 5568 5565 5561 5557 5554 5550 5547 5544 5541 5540 5539 5538 5537 5536 5535 5535 5534 5533 5532
5613 5613 5611 5611 5609 5607 5605 5603 5601 5598 5596 5594 5592 5589 5587 5585 5583 5580 5577 5574 5572 5570 5568 5565 5562 5558 5554 5550 5546 5542 5540 5537 5535 5533 5532 5532 5531 5530 5530 5529 5528 5527 5527